Weather History for Lordsburg, NM

Change the Weather History Date:

Wednesday, October 10, 2012

  Actual Average Record
Temperature  
Mean Temperature 68 °F -  
Max Temperature 87 °F 81 °F 77 °F (2014)
Min Temperature 48 °F 45 °F 48 °F (2013)
Cooling Degree Days 2    
Growing Degree Days 18 (Base 50)    
Moisture  
Dew Point 32 °F    
Average Humidity 26    
Maximum Humidity 46    
Minimum Humidity 15    
Precipitation  
Precipitation 0.00 in - - ()
Sea Level Pressure  
Sea Level Pressure 30.07 in    
Wind  
Wind Speed 3 mph ()    
Max Wind Speed 13 mph    
Max Gust Speed 22 mph    
Visibility 10.0 miles    
Events      
Averages and records for this station are not official NWS values.
T = Trace of Precipitation, MM = Missing Value Source: Averaged Metar Reports

Daily Weather History Graph

Daily Weather History Graph

Search for Another Location

Airport:

Trip Planner

Search our weather history database for the weather conditions in past years. The results will help you decide how hot, cold, wet, or windy it might be!

Date:

Astronomy

Oct. 10, 2012 Rise Set
Actual Time 7:15 AM MDT 6:47 PM MDT
Civil Twilight 6:50 AM MDT 7:11 PM MDT
Nautical Twilight 6:22 AM MDT 7:40 PM MDT
Astronomical Twilight 5:53 AM MDT 8:08 PM MDT
Moon 2:11 AM MDT (10/10) 3:37 PM MDT (10/10)
Length of Visible Light 12h 21m
Length of Day
11h 32m
Waning Crescent, 26% of the Moon is Illuminated
Oct 10
Waning Crescent
Oct 15
New
Oct 21
First Quarter
Oct 29
Full
Nov 6
Last Quarter

Hourly Weather History & Observations

Time (MDT) Temp. Dew Point Humidity Pressure Visibility Wind Dir Wind Speed Gust Speed Precip Events Conditions
12:15 AM 60.8 °F 26.6 °F 27% 30.08 in 10.0 mi SSE 3.5 mph - N/A   Clear
12:35 AM 62.6 °F 28.4 °F 27% 30.08 in 10.0 mi Calm Calm - N/A   Clear
12:55 AM 60.8 °F 28.4 °F 29% 30.08 in 10.0 mi SW 3.5 mph - N/A   Clear
1:15 AM 60.8 °F 26.6 °F 27% 30.09 in 10.0 mi Calm Calm - N/A   Clear
1:35 AM 60.8 °F 30.2 °F 31% 30.10 in 10.0 mi South 4.6 mph - N/A   Clear
1:55 AM 59.0 °F 28.4 °F 31% 30.10 in 10.0 mi NE 5.8 mph - N/A   Clear
2:15 AM 69.8 °F 32.0 °F 25% 30.10 in 10.0 mi SW 4.6 mph - N/A   Clear
2:35 AM 66.2 °F 32.0 °F 28% 30.10 in 10.0 mi Calm Calm - N/A   Clear
2:55 AM 60.8 °F 30.2 °F 31% 30.10 in 10.0 mi Calm Calm - N/A   Clear
3:15 AM 59.0 °F 30.2 °F 34% 30.10 in 10.0 mi Calm Calm - N/A   Clear
3:35 AM 59.0 °F 30.2 °F 34% 30.10 in 10.0 mi Calm Calm - N/A   Clear
3:55 AM 53.6 °F 28.4 °F 38% 30.10 in 10.0 mi Calm Calm - N/A   Clear
4:15 AM 51.8 °F 28.4 °F 41% 30.10 in 10.0 mi Calm Calm - N/A   Clear
4:35 AM 53.6 °F 28.4 °F 38% 30.10 in 10.0 mi Calm Calm - N/A   Clear
4:55 AM 53.6 °F 28.4 °F 38% 30.10 in 10.0 mi Calm Calm - N/A   Clear
5:15 AM 53.6 °F 28.4 °F 38% 30.11 in 10.0 mi Calm Calm - N/A   Clear
5:35 AM 55.4 °F 30.2 °F 38% 30.10 in 10.0 mi Calm Calm - N/A   Clear
5:55 AM 55.4 °F 30.2 °F 38% 30.11 in 10.0 mi Calm Calm - N/A   Clear
6:15 AM 51.8 °F 26.6 °F 38% 30.11 in 10.0 mi Calm Calm - N/A   Clear
6:35 AM 50.0 °F 28.4 °F 43% 30.12 in 10.0 mi Calm Calm - N/A   Clear
6:55 AM 51.8 °F 28.4 °F 41% 30.12 in 10.0 mi Calm Calm - N/A   Clear
7:35 AM 48.2 °F 28.4 °F 46% 30.13 in 10.0 mi SSE 3.5 mph - N/A   Clear
7:55 AM 51.8 °F 28.4 °F 41% 30.14 in 10.0 mi South 4.6 mph - N/A   Clear
8:15 AM 57.2 °F 32.0 °F 38% 30.14 in 10.0 mi Calm Calm - N/A   Clear
8:35 AM 60.8 °F 32.0 °F 34% 30.14 in 10.0 mi Calm Calm - N/A   Clear
8:55 AM 62.6 °F 30.2 °F 30% 30.14 in 10.0 mi Calm Calm - N/A   Clear
9:15 AM 66.2 °F 32.0 °F 28% 30.15 in 10.0 mi Calm Calm - N/A   Clear
9:35 AM 68.0 °F 32.0 °F 26% 30.15 in 10.0 mi Calm Calm - N/A   Clear
9:55 AM 69.8 °F 32.0 °F 25% 30.15 in 10.0 mi North 3.5 mph - N/A   Clear
10:15 AM 71.6 °F 32.0 °F 23% 30.15 in 10.0 mi North 3.5 mph - N/A   Clear
10:55 AM 73.4 °F 33.8 °F 23% 30.15 in 10.0 mi Calm Calm - N/A   Clear
11:15 AM 73.4 °F 35.6 °F 25% 30.14 in 10.0 mi NW 4.6 mph - N/A   Clear
11:55 AM 77.0 °F 35.6 °F 22% 30.13 in 10.0 mi North 3.5 mph - N/A   Clear
12:15 PM 78.8 °F 35.6 °F 21% 30.12 in 10.0 mi WNW 3.5 mph - N/A   Clear
12:35 PM 80.6 °F 35.6 °F 20% 30.11 in 10.0 mi Calm Calm - N/A   Clear
12:55 PM 80.6 °F 35.6 °F 20% 30.10 in 10.0 mi ESE 4.6 mph - N/A   Clear
1:15 PM 80.6 °F 35.6 °F 20% 30.08 in 10.0 mi SE 5.8 mph - N/A   Clear
1:35 PM 84.2 °F 33.8 °F 16% 30.07 in 10.0 mi SSE 6.9 mph - N/A   Clear
1:55 PM 84.2 °F 35.6 °F 18% 30.06 in 10.0 mi SE 9.2 mph - N/A   Clear
2:15 PM 86.0 °F 33.8 °F 15% 30.04 in 10.0 mi ESE 11.5 mph 17.3 mph N/A   Clear
2:35 PM 86.0 °F 33.8 °F 15% 30.03 in 10.0 mi SE 12.7 mph 21.9 mph N/A   Clear
2:55 PM 86.0 °F 33.8 °F 15% 30.02 in 10.0 mi SSE 6.9 mph - N/A   Clear
3:15 PM 87.8 °F 33.8 °F 15% 30.02 in 10.0 mi South 11.5 mph 16.1 mph N/A   Clear
3:35 PM 86.0 °F 33.8 °F 15% 30.01 in 10.0 mi SE 9.2 mph - N/A   Clear
3:55 PM 87.8 °F 33.8 °F 15% 30.01 in 10.0 mi SSE 12.7 mph 17.3 mph N/A   Clear
4:15 PM 87.8 °F 33.8 °F 15% 29.99 in 10.0 mi SE 10.4 mph 16.1 mph N/A   Clear
4:35 PM 86.0 °F 33.8 °F 15% 29.99 in 10.0 mi SE 11.5 mph - N/A   Clear
4:55 PM 86.0 °F 33.8 °F 15% 29.99 in 10.0 mi South 5.8 mph 9.2 mph N/A   Clear
5:15 PM 86.0 °F 33.8 °F 15% 29.98 in 10.0 mi SSE 6.9 mph - N/A   Clear
5:35 PM 86.0 °F 33.8 °F 15% 29.98 in 10.0 mi SSE 9.2 mph - N/A   Clear
5:55 PM 86.0 °F 33.8 °F 15% 29.98 in 10.0 mi SE 6.9 mph - N/A   Clear
6:15 PM 84.2 °F 32.0 °F 15% 29.98 in 10.0 mi SE 6.9 mph - N/A   Clear
6:35 PM 82.4 °F 32.0 °F 16% 29.99 in 10.0 mi SE 6.9 mph - N/A   Clear
6:55 PM 80.6 °F 32.0 °F 17% 29.99 in 10.0 mi SSE 5.8 mph - N/A   Clear
7:15 PM 77.0 °F 32.0 °F 19% 29.99 in 10.0 mi South 9.2 mph - N/A   Clear
7:35 PM 75.2 °F 32.0 °F 21% 30.00 in 10.0 mi SSW 8.1 mph - N/A   Clear
7:55 PM 77.0 °F 33.8 °F 21% 30.00 in 10.0 mi SW 6.9 mph - N/A   Clear
8:15 PM 75.2 °F 35.6 °F 24% 30.01 in 10.0 mi SW 5.8 mph - N/A   Clear
8:35 PM 75.2 °F 35.6 °F 24% 30.01 in 10.0 mi SW 8.1 mph - N/A   Clear
8:55 PM 73.4 °F 35.6 °F 25% 30.02 in 10.0 mi SW 5.8 mph - N/A   Clear
9:15 PM 73.4 °F 33.8 °F 23% 30.02 in 10.0 mi SW 6.9 mph - N/A   Clear
9:35 PM 69.8 °F 33.8 °F 27% 30.03 in 10.0 mi NW 4.6 mph - N/A   Clear
9:55 PM 71.6 °F 32.0 °F 23% 30.03 in 10.0 mi WSW 3.5 mph - N/A   Clear
10:15 PM 69.8 °F 32.0 °F 25% 30.03 in 10.0 mi NNE 3.5 mph - N/A   Clear
10:35 PM 71.6 °F 30.2 °F 22% 30.04 in 10.0 mi ESE 8.1 mph - N/A   Clear
10:55 PM 71.6 °F 32.0 °F 23% 30.04 in 10.0 mi East 4.6 mph - N/A   Clear
11:15 PM 71.6 °F 32.0 °F 23% 30.04 in 10.0 mi ENE 4.6 mph - N/A   Clear
11:35 PM 69.8 °F 32.0 °F 25% 30.04 in 10.0 mi ENE 3.5 mph - N/A   Clear
11:55 PM 68.0 °F 32.0 °F 26% 30.04 in 10.0 mi Calm Calm - N/A   Clear